| time (UTC) | temp F | wind direction | speed MPH | gust MPH | rain 1hr in | rain 24hr in | rain mn in | humidity % | barometer mb |
| 20260906231602 | 60 | 0 | 0.0 | 3.0 | 0.16 | 0.18 | 0.18 | 90 | 1015.8 |
| 20260906231059 | 60 | 213 | 1.0 | 3.0 | 0.16 | 0.18 | 0.18 | 89 | 1015.8 |
| 20260906230559 | 61 | 0 | 1.0 | 3.0 | 0.16 | 0.18 | 0.18 | 88 | 1015.9 |
| 20260906230108 | 61 | 302 | 1.0 | 9.0 | 0.13 | 0.15 | 0.15 | 86 | 1016.2 |
| 20260906225559 | 62 | 332 | 2.0 | 9.0 | 0.08 | 0.10 | 0.10 | 84 | 1016.1 |
| 20260906225057 | 63 | 78 | 2.0 | 6.0 | 0.02 | 0.04 | 0.04 | 81 | 1015.9 |
| 20260906224604 | 64 | 0 | 0.0 | 2.0 | 0.00 | 0.02 | 0.02 | 79 | 1015.7 |
| 20260906224100 | 65 | 0 | 0.0 | 1.0 | 0.00 | 0.02 | 0.02 | 77 | 1015.4 |
| 20260906223558 | 65 | 0 | 0.0 | 1.0 | 0.00 | 0.02 | 0.02 | 77 | 1015.4 |
| 20260906223104 | 65 | 0 | 0.0 | 1.0 | 0.00 | 0.02 | 0.02 | 77 | 1015.3 |
| 20260906222557 | 65 | 0 | 0.0 | 1.0 | 0.00 | 0.02 | 0.02 | 75 | 1015.3 |
| 20260906222100 | 65 | 0 | 0.0 | 1.0 | 0.00 | 0.02 | 0.02 | 77 | 1015.3 |
| 20260906221604 | 65 | 0 | 0.0 | 1.0 | 0.00 | 0.02 | 0.02 | 76 | 1015.3 |
| 20260906221100 | 65 | 0 | 0.0 | 0.0 | 0.00 | 0.02 | 0.02 | 74 | 1015.3 |
| 20260906220601 | 65 | 0 | 0.0 | 1.0 | 0.00 | 0.02 | 0.02 | 72 | 1015.3 |
| 20260906220104 | 65 | 0 | 0.0 | 1.0 | 0.00 | 0.02 | 0.02 | 70 | 1015.4 |
| 20260906215601 | 65 | 0 | 0.0 | 1.0 | 0.00 | 0.02 | 0.02 | 75 | 1015.4 |
| 20260906215102 | 65 | 0 | 0.0 | 1.0 | 0.00 | 0.02 | 0.02 | 74 | 1015.3 |
| 20260906214603 | 64 | 0 | 0.0 | 1.0 | 0.00 | 0.02 | 0.02 | 74 | 1015.3 |
| 20260906214101 | 65 | 0 | 0.0 | 3.0 | 0.00 | 0.02 | 0.02 | 74 | 1015.3 |
| 20260906213601 | 65 | 0 | 0.0 | 3.0 | 0.00 | 0.02 | 0.02 | 72 | 1015.4 |
| 20260906213103 | 65 | 256 | 0.0 | 2.0 | 0.00 | 0.02 | 0.02 | 73 | 1015.3 |
| 20260906212605 | 65 | 0 | 0.0 | 2.0 | 0.00 | 0.02 | 0.02 | 71 | 1015.3 |
| 20260906212101 | 66 | 0 | 0.0 | 3.0 | 0.00 | 0.02 | 0.02 | 71 | 1015.4 |
| 20260906211605 | 66 | 0 | 0.0 | 3.0 | 0.00 | 0.02 | 0.02 | 71 | 1015.4 |
| 20260906211101 | 65 | 0 | 0.0 | 2.0 | 0.00 | 0.02 | 0.02 | 72 | 1015.4 |
| 20260906210601 | 66 | 0 | 0.0 | 2.0 | 0.00 | 0.02 | 0.02 | 70 | 1015.4 |
| 20260906210114 | 66 | 0 | 0.0 | 2.0 | 0.00 | 0.02 | 0.02 | 69 | 1015.3 |
| 20260906205602 | 66 | 0 | 1.0 | 2.0 | 0.00 | 0.02 | 0.02 | 71 | 1015.3 |
| 20260906205101 | 66 | 0 | 0.0 | 8.0 | 0.00 | 0.02 | 0.02 | 70 | 1015.3 |
| 20260906204604 | 66 | 0 | 1.0 | 8.0 | 0.00 | 0.02 | 0.02 | 70 | 1015.2 |
| 20260906204103 | 66 | 225 | 0.0 | 3.0 | 0.00 | 0.02 | 0.02 | 70 | 1015.2 |
| 20260906203602 | 66 | 0 | 0.0 | 3.0 | 0.00 | 0.02 | 0.02 | 69 | 1015.1 |
| 20260906203104 | 67 | 100 | 0.0 | 4.0 | 0.00 | 0.02 | 0.02 | 68 | 1015.1 |
| 20260906202601 | 66 | 0 | 1.0 | 4.0 | 0.00 | 0.02 | 0.02 | 69 | 1015.2 |
| 20260906202101 | 66 | 316 | 1.0 | 3.0 | 0.00 | 0.02 | 0.02 | 71 | 1015.2 |
| 20260906201606 | 66 | 0 | 0.0 | 4.0 | 0.00 | 0.02 | 0.02 | 69 | 1015.2 |
| 20260906201101 | 67 | 69 | 1.0 | 4.0 | 0.00 | 0.02 | 0.02 | 69 | 1015.1 |
| 20260906200603 | 66 | 46 | 1.0 | 3.0 | 0.00 | 0.02 | 0.02 | 68 | 1015.2 |
| 20260906200119 | 65 | 0 | 0.0 | 3.0 | 0.00 | 0.02 | 0.02 | 71 | 1015.2 |
| 20260906195601 | 65 | 267 | 0.0 | 3.0 | 0.00 | 0.02 | 0.02 | 73 | 1015.3 |
| 20260906195101 | 65 | 179 | 0.0 | 4.0 | 0.00 | 0.02 | 0.02 | 72 | 1015.2 |
| 20260906194618 | 65 | 292 | 0.0 | 4.0 | 0.00 | 0.02 | 0.02 | 72 | 1015.2 |
| 20260906194100 | 65 | 0 | 1.0 | 3.0 | 0.00 | 0.02 | 0.02 | 72 | 1015.3 |
| 20260906193600 | 65 | 0 | 0.0 | 4.0 | 0.00 | 0.02 | 0.02 | 71 | 1015.3 |
| 20260906193109 | 65 | 287 | 0.0 | 4.0 | 0.00 | 0.02 | 0.02 | 72 | 1015.3 |
| 20260906192601 | 65 | 248 | 0.0 | 4.0 | 0.00 | 0.02 | 0.02 | 74 | 1015.3 |
| 20260906192101 | 64 | 336 | 0.0 | 0.0 | 0.00 | 0.02 | 0.02 | 72 | 1015.3 |
| 20260906191606 | 64 | 0 | 0.0 | 0.0 | 0.00 | 0.02 | 0.02 | 73 | 1015.3 |
| 20260906191100 | 63 | 0 | 0.0 | 0.0 | 0.00 | 0.02 | 0.02 | 73 | 1015.2 |
| 20260906190601 | 63 | 0 | 0.0 | 2.0 | 0.00 | 0.02 | 0.02 | 73 | 1015.2 |
| 20260906190148 | 63 | 0 | 0.0 | 3.0 | 0.00 | 0.02 | 0.02 | 75 | 1015.3 |
| 20260906185600 | 63 | 0 | 0.0 | 4.0 | 0.00 | 0.02 | 0.02 | 74 | 1015.3 |
| 20260906185101 | 64 | 121 | 1.0 | 5.0 | 0.00 | 0.02 | 0.02 | 74 | 1015.5 |
| 20260906184604 | 63 | 0 | 1.0 | 5.0 | 0.00 | 0.02 | 0.02 | 74 | 1015.6 |
| 20260906184100 | 63 | 253 | 1.0 | 4.0 | 0.00 | 0.02 | 0.02 | 77 | 1015.6 |
| 20260906183600 | 62 | 263 | 1.0 | 5.0 | 0.00 | 0.02 | 0.02 | 75 | 1015.6 |
| 20260906183111 | 62 | 235 | 1.0 | 5.0 | 0.00 | 0.02 | 0.02 | 75 | 1015.6 |
| 20260906182600 | 63 | 245 | 2.0 | 5.0 | 0.00 | 0.02 | 0.02 | 74 | 1015.7 |
| 20260906182100 | 64 | 253 | 0.0 | 4.0 | 0.00 | 0.02 | 0.02 | 73 | 1015.6 |
| 20260906181604 | 65 | 30 | 2.0 | 6.0 | 0.00 | 0.02 | 0.02 | 71 | 1015.5 |
| 20260906181101 | 65 | 81 | 1.0 | 6.0 | 0.00 | 0.02 | 0.02 | 70 | 1015.5 |
| 20260906180601 | 66 | 233 | 1.0 | 4.0 | 0.00 | 0.02 | 0.02 | 71 | 1015.5 |
| 20260906180108 | 66 | 0 | 1.0 | 4.0 | 0.00 | 0.02 | 0.02 | 70 | 1015.5 |
| 20260906175601 | 66 | 71 | 0.0 | 3.0 | 0.00 | 0.02 | 0.02 | 69 | 1015.4 |
| 20260906175103 | 66 | 36 | 1.0 | 5.0 | 0.00 | 0.02 | 0.02 | 69 | 1015.4 |
| 20260906174607 | 66 | 101 | 1.0 | 5.0 | 0.00 | 0.02 | 0.02 | 70 | 1015.5 |
| 20260906174101 | 66 | 265 | 0.0 | 5.0 | 0.00 | 0.02 | 0.02 | 69 | 1015.5 |
| 20260906173603 | 66 | 340 | 1.0 | 5.0 | 0.00 | 0.02 | 0.02 | 68 | 1015.5 |
| 20260906173120 | 67 | 14 | 0.0 | 3.0 | 0.00 | 0.02 | 0.02 | 69 | 1015.5 |
| 20260906172601 | 66 | 278 | 0.0 | 3.0 | 0.00 | 0.02 | 0.02 | 70 | 1015.5 |
| 20260906172101 | 66 | 247 | 1.0 | 3.0 | 0.00 | 0.02 | 0.02 | 68 | 1015.5 |
| 20260906171605 | 66 | 314 | 0.0 | 6.0 | 0.00 | 0.02 | 0.02 | 69 | 1015.5 |
| 20260906171100 | 67 | 0 | 1.0 | 7.0 | 0.00 | 0.02 | 0.02 | 70 | 1015.5 |
| 20260906170604 | 67 | 33 | 1.0 | 7.0 | 0.00 | 0.02 | 0.02 | 69 | 1015.5 |
| 20260906170109 | 67 | 15 | 2.0 | 8.0 | 0.00 | 0.02 | 0.02 | 69 | 1015.6 |
| 20260906165601 | 66 | 78 | 3.0 | 8.0 | 0.00 | 0.02 | 0.02 | 69 | 1015.7 |
| 20260906165100 | 67 | 325 | 2.0 | 8.0 | 0.00 | 0.02 | 0.02 | 70 | 1015.7 |
| 20260906164604 | 66 | 254 | 2.0 | 8.0 | 0.00 | 0.02 | 0.02 | 73 | 1015.8 |
| 20260906164101 | 65 | 322 | 1.0 | 6.0 | 0.00 | 0.02 | 0.02 | 73 | 1015.8 |
| 20260906163603 | 65 | 119 | 2.0 | 8.0 | 0.00 | 0.02 | 0.02 | 72 | 1015.9 |
| 20260906163106 | 65 | 242 | 3.0 | 8.0 | 0.00 | 0.02 | 0.02 | 72 | 1015.8 |
| 20260906162601 | 65 | 80 | 2.0 | 7.0 | 0.00 | 0.02 | 0.02 | 73 | 1015.9 |
| 20260906162103 | 65 | 63 | 2.0 | 7.0 | 0.00 | 0.02 | 0.02 | 73 | 1015.9 |
| 20260906161604 | 65 | 355 | 1.0 | 7.0 | 0.00 | 0.02 | 0.02 | 75 | 1015.9 |
| 20260906161102 | 64 | 243 | 1.0 | 8.0 | 0.00 | 0.02 | 0.02 | 74 | 1016.0 |
| 20260906160601 | 64 | 53 | 1.0 | 8.0 | 0.00 | 0.02 | 0.02 | 76 | 1016.0 |
| 20260906160104 | 63 | 47 | 2.0 | 8.0 | 0.00 | 0.02 | 0.02 | 76 | 1016.1 |
| 20260906155602 | 63 | 107 | 2.0 | 6.0 | 0.00 | 0.02 | 0.02 | 75 | 1016.1 |
| 20260906155057 | 63 | 77 | 2.0 | 6.0 | 0.00 | 0.02 | 0.02 | 76 | 1016.0 |
| 20260906154612 | 63 | 0 | 1.0 | 8.0 | 0.00 | 0.02 | 0.02 | 75 | 1016.2 |
| 20260906154057 | 63 | 272 | 2.0 | 8.0 | 0.00 | 0.02 | 0.02 | 74 | 1016.1 |
| 20260906153559 | 64 | 64 | 2.0 | 8.0 | 0.00 | 0.02 | 0.02 | 74 | 1016.2 |
| 20260906153103 | 64 | 5 | 2.0 | 8.0 | 0.00 | 0.02 | 0.02 | 76 | 1016.2 |
| 20260906152559 | 64 | 112 | 0.0 | 6.0 | 0.00 | 0.02 | 0.02 | 79 | 1016.1 |
| 20260906152100 | 64 | 87 | 2.0 | 8.0 | 0.00 | 0.02 | 0.02 | 79 | 1016.1 |
| 20260906151603 | 64 | 80 | 2.0 | 8.0 | 0.00 | 0.02 | 0.02 | 79 | 1016.1 |
| 20260906151100 | 64 | 72 | 3.0 | 8.0 | 0.00 | 0.02 | 0.02 | 78 | 1016.1 |
| 20260906150559 | 64 | 86 | 1.0 | 7.0 | 0.00 | 0.02 | 0.02 | 76 | 1016.1 |
| 20260906150106 | 64 | 128 | 1.0 | 7.0 | 0.00 | 0.02 | 0.02 | 76 | 1016.1 |
| 20260906145557 | 64 | 49 | 1.0 | 4.0 | 0.00 | 0.02 | 0.02 | 77 | 1016.1 |
| 20260906145059 | 64 | 348 | 1.0 | 7.0 | 0.00 | 0.02 | 0.02 | 78 | 1016.0 |
| 20260906144602 | 63 | 24 | 0.0 | 7.0 | 0.00 | 0.02 | 0.02 | 81 | 1016.1 |
| 20260906144059 | 63 | 0 | 1.0 | 7.0 | 0.00 | 0.02 | 0.02 | 81 | 1016.2 |
| 20260906143559 | 63 | 0 | 0.0 | 8.0 | 0.00 | 0.02 | 0.02 | 83 | 1016.0 |
| 20260906143106 | 63 | 241 | 0.0 | 8.0 | 0.00 | 0.02 | 0.02 | 83 | 1016.0 |
| 20260906142559 | 63 | 0 | 1.0 | 8.0 | 0.00 | 0.02 | 0.02 | 83 | 1016.0 |
| 20260906142100 | 63 | 257 | 0.0 | 9.0 | 0.00 | 0.02 | 0.02 | 83 | 1015.9 |
| 20260906141600 | 63 | 252 | 2.0 | 9.0 | 0.00 | 0.02 | 0.02 | 83 | 1015.9 |
| 20260906141056 | 63 | 0 | 1.0 | 4.0 | 0.00 | 0.02 | 0.02 | 84 | 1015.9 |
| 20260906140600 | 63 | 232 | 0.0 | 4.0 | 0.00 | 0.02 | 0.02 | 86 | 1015.9 |
| 20260906140107 | 62 | 0 | 2.0 | 4.0 | 0.00 | 0.02 | 0.02 | 85 | 1016.0 |
| 20260906135559 | 62 | 0 | 1.0 | 8.0 | 0.00 | 0.02 | 0.02 | 85 | 1016.0 |
| 20260906135059 | 62 | 0 | 1.0 | 8.0 | 0.00 | 0.02 | 0.02 | 85 | 1016.0 |
| 20260906134607 | 62 | 295 | 2.0 | 8.0 | 0.00 | 0.02 | 0.02 | 85 | 1016.0 |
| 20260906134059 | 62 | 292 | 1.0 | 6.0 | 0.00 | 0.02 | 0.02 | 86 | 1015.9 |
| 20260906133557 | 62 | 0 | 1.0 | 6.0 | 0.00 | 0.02 | 0.02 | 86 | 1016.0 |
| 20260906133119 | 62 | 244 | 1.0 | 6.0 | 0.00 | 0.02 | 0.02 | 88 | 1016.0 |
| 20260906132600 | 61 | 282 | 1.0 | 6.0 | 0.00 | 0.02 | 0.02 | 87 | 1015.9 |
| 20260906132057 | 62 | 304 | 0.0 | 6.0 | 0.00 | 0.02 | 0.02 | 88 | 1016.0 |
| 20260906131603 | 61 | 0 | 1.0 | 6.0 | 0.00 | 0.02 | 0.02 | 90 | 1016.0 |
| 20260906131056 | 61 | 301 | 1.0 | 6.0 | 0.00 | 0.02 | 0.02 | 90 | 1015.9 |
| 20260906130556 | 61 | 283 | 1.0 | 4.0 | 0.00 | 0.02 | 0.02 | 90 | 1015.9 |
| 20260906130117 | 61 | 229 | 0.0 | 3.0 | 0.00 | 0.02 | 0.02 | 91 | 1015.9 |
| 20260906125559 | 60 | 285 | 0.0 | 7.0 | 0.00 | 0.02 | 0.02 | 91 | 1015.8 |
| 20260906125057 | 60 | 0 | 0.0 | 7.0 | 0.00 | 0.02 | 0.02 | 91 | 1015.9 |
| 20260906124601 | 60 | 268 | 1.0 | 6.0 | 0.00 | 0.02 | 0.02 | 91 | 1015.8 |
| 20260906124059 | 60 | 0 | 0.0 | 5.0 | 0.00 | 0.02 | 0.02 | 92 | 1015.8 |
| 20260906123559 | 60 | 0 | 1.0 | 5.0 | 0.00 | 0.02 | 0.02 | 92 | 1015.8 |
| 20260906123104 | 60 | 281 | 0.0 | 3.0 | 0.00 | 0.02 | 0.02 | 93 | 1015.8 |
| 20260906122603 | 60 | 0 | 0.0 | 3.0 | 0.00 | 0.02 | 0.02 | 93 | 1015.7 |
| 20260906122103 | 60 | 0 | 1.0 | 3.0 | 0.00 | 0.02 | 0.02 | 93 | 1015.7 |
| 20260906121604 | 59 | 303 | 0.0 | 2.0 | 0.00 | 0.02 | 0.02 | 93 | 1015.7 |
| 20260906121101 | 59 | 0 | 0.0 | 2.0 | 0.00 | 0.02 | 0.02 | 93 | 1015.6 |
| 20260906120601 | 59 | 269 | 0.0 | 2.0 | 0.00 | 0.02 | 0.02 | 93 | 1015.6 |
| 20260906115601 | 59 | 0 | 0.0 | 2.0 | 0.00 | 0.02 | 0.02 | 93 | 1015.6 |
| 20260906115100 | 59 | 0 | 0.0 | 1.0 | 0.00 | 0.02 | 0.02 | 93 | 1015.5 |
| 20260906114601 | 59 | 0 | 0.0 | 1.0 | 0.00 | 0.02 | 0.02 | 93 | 1015.5 |
| 20260906114102 | 58 | 0 | 0.0 | 1.0 | 0.01 | 0.02 | 0.02 | 92 | 1015.5 |
| 20260906113559 | 58 | 0 | 0.0 | 0.0 | 0.01 | 0.02 | 0.02 | 92 | 1015.5 |
| 20260906113104 | 58 | 0 | 0.0 | 0.0 | 0.01 | 0.02 | 0.02 | 92 | 1015.4 |
| 20260906112559 | 58 | 0 | 0.0 | 0.0 | 0.01 | 0.02 | 0.02 | 92 | 1015.3 |
| 20260906112101 | 58 | 0 | 0.0 | 1.0 | 0.02 | 0.02 | 0.02 | 92 | 1015.2 |
| 20260906111604 | 58 | 0 | 0.0 | 1.0 | 0.02 | 0.02 | 0.02 | 92 | 1015.1 |
| 20260906111059 | 58 | 0 | 0.0 | 1.0 | 0.02 | 0.02 | 0.02 | 91 | 1015.1 |
| 20260906110601 | 58 | 0 | 0.0 | 2.0 | 0.02 | 0.02 | 0.02 | 91 | 1015.0 |
| 20260906110103 | 58 | 0 | 0.0 | 2.0 | 0.02 | 0.02 | 0.02 | 91 | 1014.9 |
| 20260906105600 | 58 | 0 | 0.0 | 1.0 | 0.02 | 0.02 | 0.02 | 91 | 1014.8 |
| 20260906105059 | 58 | 0 | 0.0 | 1.0 | 0.02 | 0.02 | 0.02 | 91 | 1014.7 |
| 20260906104602 | 58 | 0 | 0.0 | 1.0 | 0.02 | 0.02 | 0.02 | 91 | 1014.8 |
| 20260906104059 | 58 | 0 | 0.0 | 1.0 | 0.01 | 0.01 | 0.01 | 90 | 1014.7 |
| 20260906103603 | 58 | 0 | 0.0 | 1.0 | 0.01 | 0.01 | 0.01 | 90 | 1014.8 |
| 20260906103105 | 58 | 0 | 0.0 | 1.0 | 0.01 | 0.01 | 0.01 | 90 | 1014.8 |
| 20260906102600 | 58 | 0 | 0.0 | 1.0 | 0.01 | 0.01 | 0.01 | 89 | 1014.9 |
| 20260906102059 | 59 | 0 | 0.0 | 1.0 | 0.00 | 0.00 | 0.00 | 89 | 1014.7 |
| 20260906101606 | 59 | 0 | 0.0 | 1.0 | 0.00 | 0.00 | 0.00 | 88 | 1014.7 |
| 20260906101059 | 59 | 0 | 0.0 | 2.0 | 0.00 | 0.00 | 0.00 | 87 | 1014.6 |
| 20260906100559 | 59 | 0 | 0.0 | 2.0 | 0.00 | 0.00 | 0.00 | 86 | 1014.5 |
| 20260906100103 | 59 | 0 | 0.0 | 5.0 | 0.00 | 0.00 | 0.00 | 86 | 1014.7 |
| 20260906095601 | 60 | 0 | 0.0 | 5.0 | 0.00 | 0.00 | 0.00 | 86 | 1014.7 |
| 20260906095104 | 60 | 22 | 0.0 | 4.0 | 0.00 | 0.00 | 0.00 | 86 | 1014.6 |
| 20260906094610 | 60 | 32 | 1.0 | 4.0 | 0.00 | 0.00 | 0.00 | 86 | 1014.6 |
| 20260906094100 | 60 | 0 | 0.0 | 4.0 | 0.00 | 0.00 | 0.00 | 86 | 1014.5 |
| 20260906093601 | 60 | 163 | 1.0 | 4.0 | 0.00 | 0.00 | 0.00 | 87 | 1014.3 |
| 20260906093118 | 60 | 0 | 0.0 | 6.0 | 0.00 | 0.00 | 0.00 | 87 | 1014.2 |
| 20260906092604 | 60 | 60 | 1.0 | 6.0 | 0.00 | 0.00 | 0.00 | 87 | 1014.0 |
| 20260906092100 | 60 | 13 | 1.0 | 4.0 | 0.00 | 0.00 | 0.00 | 88 | 1014.1 |
| 20260906091604 | 60 | 36 | 1.0 | 4.0 | 0.00 | 0.00 | 0.00 | 88 | 1014.0 |
| 20260906091101 | 60 | 0 | 0.0 | 4.0 | 0.00 | 0.00 | 0.00 | 89 | 1014.1 |
| 20260906090600 | 60 | 33 | 0.0 | 4.0 | 0.00 | 0.00 | 0.00 | 89 | 1013.9 |
| 20260906090140 | 60 | 0 | 0.0 | 4.0 | 0.00 | 0.00 | 0.00 | 90 | 1013.9 |
| 20260906085603 | 60 | 76 | 0.0 | 4.0 | 0.00 | 0.00 | 0.00 | 90 | 1013.8 |
| 20260906085101 | 60 | 36 | 0.0 | 3.0 | 0.00 | 0.00 | 0.00 | 91 | 1013.8 |
| 20260906084631 | 60 | 0 | 0.0 | 3.0 | 0.00 | 0.00 | 0.00 | 91 | 1013.9 |
| 20260906084100 | 60 | 50 | 0.0 | 3.0 | 0.00 | 0.00 | 0.00 | 91 | 1013.8 |
| 20260906083600 | 60 | 0 | 0.0 | 3.0 | 0.00 | 0.00 | 0.00 | 92 | 1013.7 |
| 20260906083106 | 60 | 0 | 0.0 | 3.0 | 0.00 | 0.00 | 0.00 | 92 | 1013.7 |
| 20260906082559 | 60 | 236 | 0.0 | 1.0 | 0.00 | 0.00 | 0.00 | 92 | 1013.6 |
| 20260906082059 | 60 | 0 | 0.0 | 1.0 | 0.00 | 0.00 | 0.00 | 92 | 1013.5 |
| 20260906081603 | 60 | 0 | 0.0 | 1.0 | 0.00 | 0.00 | 0.00 | 92 | 1013.5 |
| 20260906081100 | 60 | 0 | 0.0 | 1.0 | 0.00 | 0.00 | 0.00 | 92 | 1013.6 |
| 20260906080600 | 60 | 0 | 0.0 | 1.0 | 0.00 | 0.00 | 0.00 | 92 | 1013.6 |
| 20260906080109 | 60 | 0 | 0.0 | 1.0 | 0.00 | 0.00 | 0.00 | 92 | 1013.5 |
| 20260906075601 | 60 | 0 | 0.0 | 1.0 | 0.00 | 0.00 | 0.00 | 92 | 1013.4 |
| 20260906075101 | 60 | 0 | 0.0 | 1.0 | 0.00 | 0.00 | 0.00 | 91 | 1013.5 |
| 20260906074605 | 60 | 0 | 0.0 | 2.0 | 0.00 | 0.00 | 0.00 | 91 | 1013.4 |
| 20260906074100 | 60 | 0 | 0.0 | 2.0 | 0.00 | 0.00 | 0.00 | 91 | 1013.4 |
| 20260906073601 | 60 | 0 | 0.0 | 2.0 | 0.00 | 0.00 | 0.00 | 91 | 1013.4 |
| 20260906073104 | 60 | 0 | 0.0 | 2.0 | 0.00 | 0.00 | 0.00 | 91 | 1013.4 |
| 20260906072600 | 60 | 0 | 0.0 | 2.0 | 0.00 | 0.00 | 0.00 | 91 | 1013.4 |
| 20260906072100 | 60 | 0 | 0.0 | 2.0 | 0.00 | 0.00 | 0.00 | 91 | 1013.4 |
| 20260906071602 | 60 | 0 | 0.0 | 2.0 | 0.00 | 0.00 | 0.00 | 91 | 1013.4 |
| 20260906071059 | 60 | 268 | 0.0 | 3.0 | 0.00 | 0.00 | 0.00 | 91 | 1013.4 |
| 20260906070603 | 60 | 267 | 0.0 | 3.0 | 0.00 | 0.00 | 0.00 | 91 | 1013.6 |
| 20260906065600 | 60 | 0 | 0.0 | 3.0 | 0.00 | 0.00 | 0.00 | 91 | 1013.5 |
| 20260906065100 | 60 | 0 | 0.0 | 3.0 | 0.00 | 0.00 | 0.00 | 90 | 1013.3 |
| 20260906064602 | 59 | 0 | 0.0 | 0.0 | 0.00 | 0.00 | 0.00 | 90 | 1013.3 |
| 20260906064100 | 59 | 0 | 0.0 | 0.0 | 0.00 | 0.00 | 0.00 | 90 | 1013.3 |
| 20260906063559 | 59 | 0 | 0.0 | 0.0 | 0.00 | 0.00 | 0.00 | 90 | 1013.4 |
| 20260906063104 | 59 | 0 | 0.0 | 0.0 | 0.00 | 0.00 | 0.00 | 90 | 1013.4 |
| 20260906062600 | 59 | 0 | 0.0 | 0.0 | 0.00 | 0.00 | 0.00 | 90 | 1013.4 |
| 20260906062101 | 59 | 0 | 0.0 | 0.0 | 0.00 | 0.00 | 0.00 | 89 | 1013.5 |
| 20260906061607 | 59 | 0 | 0.0 | 0.0 | 0.00 | 0.00 | 0.00 | 89 | 1013.5 |
| 20260906061059 | 59 | 0 | 0.0 | 0.0 | 0.00 | 0.00 | 0.00 | 89 | 1013.5 |
| 20260906060603 | 59 | 0 | 0.0 | 0.0 | 0.00 | 0.00 | 0.00 | 88 | 1013.4 |
| 20260906060103 | 60 | 0 | 0.0 | 0.0 | 0.00 | 0.00 | 0.00 | 88 | 1013.4 |
| 20260906055559 | 60 | 0 | 0.0 | 0.0 | 0.00 | 0.00 | 0.00 | 87 | 1013.4 |
| 20260906055100 | 60 | 0 | 0.0 | 0.0 | 0.00 | 0.00 | 0.00 | 87 | 1013.5 |
| 20260906054607 | 60 | 0 | 0.0 | 0.0 | 0.00 | 0.00 | 0.00 | 87 | 1013.5 |
| 20260906054104 | 60 | 0 | 0.0 | 0.0 | 0.00 | 0.00 | 0.00 | 87 | 1013.6 |
| 20260906053600 | 60 | 0 | 0.0 | 0.0 | 0.00 | 0.00 | 0.00 | 87 | 1013.6 |
| 20260906053119 | 60 | 0 | 0.0 | 0.0 | 0.00 | 0.00 | 0.00 | 87 | 1013.7 |
| 20260906052600 | 60 | 0 | 0.0 | 0.0 | 0.00 | 0.00 | 0.00 | 87 | 1013.7 |
| 20260906052101 | 60 | 0 | 0.0 | 0.0 | 0.00 | 0.00 | 0.00 | 87 | 1013.8 |
| 20260906051603 | 60 | 0 | 0.0 | 0.0 | 0.00 | 0.00 | 0.00 | 87 | 1013.7 |
| 20260906051059 | 60 | 0 | 0.0 | 0.0 | 0.00 | 0.00 | 0.00 | 87 | 1013.7 |
| 20260906050559 | 60 | 0 | 0.0 | 0.0 | 0.00 | 0.00 | 0.00 | 87 | 1013.8 |
| 20260906045600 | 60 | 0 | 0.0 | 0.0 | 0.00 | 0.00 | 0.00 | 87 | 1013.8 |
| 20260906045100 | 60 | 0 | 0.0 | 0.0 | 0.00 | 0.00 | 0.00 | 87 | 1013.8 |
| 20260906044622 | 60 | 0 | 0.0 | 0.0 | 0.00 | 0.00 | 0.00 | 87 | 1013.7 |
| 20260906044059 | 60 | 0 | 0.0 | 1.0 | 0.00 | 0.00 | 0.00 | 88 | 1013.8 |
| 20260906043600 | 60 | 0 | 0.0 | 1.0 | 0.00 | 0.00 | 0.00 | 88 | 1013.7 |
| 20260906043104 | 60 | 0 | 0.0 | 0.0 | 0.00 | 0.00 | 0.00 | 88 | 1013.6 |
| 20260906042559 | 60 | 0 | 0.0 | 0.0 | 0.00 | 0.00 | 0.00 | 89 | 1013.6 |
| 20260906042100 | 60 | 0 | 0.0 | 0.0 | 0.00 | 0.00 | 0.00 | 89 | 1013.6 |
| 20260906041615 | 60 | 0 | 0.0 | 0.0 | 0.00 | 0.00 | 0.00 | 89 | 1013.6 |
| 20260906041059 | 60 | 0 | 0.0 | 0.0 | 0.00 | 0.00 | 0.00 | 89 | 1013.5 |
| 20260906040559 | 60 | 0 | 0.0 | 0.0 | 0.00 | 0.00 | 0.00 | 89 | 1013.6 |
| 20260906040105 | 60 | 0 | 0.0 | 0.0 | 0.00 | 0.00 | 0.00 | 89 | 1013.6 |
| 20260906035603 | 60 | 0 | 0.0 | 0.0 | 0.00 | 0.00 | 0.00 | 89 | 1013.5 |
| 20260906035100 | 60 | 0 | 0.0 | 0.0 | 0.00 | 0.00 | 0.00 | 89 | 1013.4 |
| 20260906034610 | 60 | 0 | 0.0 | 0.0 | 0.00 | 0.00 | 0.00 | 88 | 1013.5 |
| 20260906034103 | 60 | 0 | 0.0 | 0.0 | 0.00 | 0.00 | 0.00 | 88 | 1013.4 |
| 20260906033559 | 60 | 0 | 0.0 | 0.0 | 0.00 | 0.00 | 0.00 | 88 | 1013.4 |
| 20260906033104 | 60 | 0 | 0.0 | 0.0 | 0.00 | 0.00 | 0.00 | 88 | 1013.3 |
| 20260906032559 | 60 | 0 | 0.0 | 0.0 | 0.00 | 0.00 | 0.00 | 88 | 1013.2 |
| 20260906032118 | 60 | 0 | 0.0 | 0.0 | 0.00 | 0.00 | 0.00 | 88 | 1013.2 |
| 20260906031601 | 60 | 0 | 0.0 | 0.0 | 0.00 | 0.00 | 0.00 | 88 | 1013.2 |
| 20260906031058 | 60 | 0 | 0.0 | 0.0 | 0.00 | 0.00 | 0.00 | 88 | 1013.2 |
| 20260906030559 | 60 | 0 | 0.0 | 0.0 | 0.00 | 0.00 | 0.00 | 88 | 1013.3 |
| 20260906030101 | 60 | 0 | 0.0 | 0.0 | 0.00 | 0.00 | 0.00 | 88 | 1013.3 |
| 20260906025559 | 60 | 0 | 0.0 | 0.0 | 0.00 | 0.00 | 0.00 | 88 | 1013.2 |
| 20260906025101 | 60 | 0 | 0.0 | 0.0 | 0.00 | 0.00 | 0.00 | 88 | 1013.3 |
| 20260906024623 | 60 | 0 | 0.0 | 0.0 | 0.00 | 0.00 | 0.00 | 88 | 1013.4 |
| 20260906024100 | 60 | 0 | 0.0 | 0.0 | 0.00 | 0.00 | 0.00 | 88 | 1013.4 |
| 20260906023559 | 61 | 0 | 0.0 | 0.0 | 0.00 | 0.00 | 0.00 | 87 | 1013.3 |
| 20260906023106 | 61 | 0 | 0.0 | 0.0 | 0.00 | 0.00 | 0.00 | 87 | 1013.4 |
| 20260906022557 | 61 | 0 | 0.0 | 0.0 | 0.00 | 0.00 | 0.00 | 86 | 1013.3 |
| 20260906022059 | 61 | 0 | 0.0 | 0.0 | 0.00 | 0.00 | 0.00 | 86 | 1013.3 |
| 20260906021559 | 61 | 0 | 0.0 | 0.0 | 0.00 | 0.00 | 0.00 | 87 | 1013.3 |
| 20260906021059 | 61 | 0 | 0.0 | 0.0 | 0.00 | 0.00 | 0.00 | 87 | 1013.4 |
| 20260906020559 | 61 | 0 | 0.0 | 0.0 | 0.00 | 0.00 | 0.00 | 87 | 1013.4 |
| 20260906020108 | 61 | 0 | 0.0 | 0.0 | 0.00 | 0.00 | 0.00 | 87 | 1013.2 |
| 20260906015559 | 61 | 0 | 0.0 | 0.0 | 0.00 | 0.00 | 0.00 | 86 | 1013.4 |
| 20260906015059 | 61 | 0 | 0.0 | 0.0 | 0.00 | 0.00 | 0.00 | 86 | 1013.3 |
| 20260906014605 | 62 | 0 | 0.0 | 0.0 | 0.00 | 0.00 | 0.00 | 86 | 1013.3 |
| 20260906014059 | 62 | 0 | 0.0 | 0.0 | 0.00 | 0.00 | 0.00 | 85 | 1013.5 |
| 20260906013559 | 62 | 0 | 0.0 | 0.0 | 0.00 | 0.00 | 0.00 | 85 | 1013.4 |
| 20260906013109 | 62 | 0 | 0.0 | 0.0 | 0.00 | 0.00 | 0.00 | 85 | 1013.5 |
| 20260906012557 | 62 | 0 | 0.0 | 0.0 | 0.00 | 0.00 | 0.00 | 85 | 1013.5 |
| 20260906012055 | 62 | 0 | 0.0 | 0.0 | 0.00 | 0.00 | 0.00 | 85 | 1013.5 |
| 20260906011604 | 62 | 0 | 0.0 | 0.0 | 0.00 | 0.00 | 0.00 | 85 | 1013.3 |
| 20260906011059 | 62 | 0 | 0.0 | 0.0 | 0.00 | 0.00 | 0.00 | 84 | 1013.2 |
| 20260906010559 | 62 | 0 | 0.0 | 0.0 | 0.00 | 0.00 | 0.00 | 84 | 1013.1 |
| 20260906010130 | 62 | 0 | 0.0 | 0.0 | 0.00 | 0.00 | 0.00 | 84 | 1013.1 |
| 20260906005604 | 62 | 0 | 0.0 | 0.0 | 0.00 | 0.00 | 0.00 | 83 | 1013.1 |
| 20260906005059 | 62 | 0 | 0.0 | 0.0 | 0.00 | 0.00 | 0.00 | 84 | 1013.2 |
| 20260906004610 | 62 | 0 | 0.0 | 0.0 | 0.00 | 0.00 | 0.00 | 84 | 1013.1 |
| 20260906004059 | 62 | 0 | 0.0 | 0.0 | 0.00 | 0.00 | 0.00 | 84 | 1013.1 |
| 20260906003559 | 62 | 0 | 0.0 | 0.0 | 0.00 | 0.00 | 0.00 | 84 | 1013.0 |
| 20260906003107 | 63 | 0 | 0.0 | 0.0 | 0.00 | 0.00 | 0.00 | 83 | 1012.9 |
| 20260906002559 | 63 | 0 | 0.0 | 0.0 | 0.00 | 0.00 | 0.00 | 83 | 1012.8 |
| 20260906002102 | 63 | 0 | 0.0 | 0.0 | 0.00 | 0.00 | 0.00 | 83 | 1012.8 |
| 20260906001611 | 63 | 0 | 0.0 | 0.0 | 0.00 | 0.00 | 0.00 | 83 | 1012.7 |
| 20260906001100 | 63 | 0 | 0.0 | 3.0 | 0.00 | 0.00 | 0.00 | 83 | 1012.7 |
| 20260906000600 | 63 | 0 | 0.0 | 3.0 | 0.00 | 0.00 | 0.00 | 83 | 1012.6 |
| 20260906000107 | 63 | 104 | 1.0 | 3.0 | 0.00 | 0.00 | 0.00 | 82 | 1012.5 |
| 20260905235602 | 63 | 0 | 0.0 | 1.0 | 0.00 | 0.00 | 0.00 | 82 | 1012.5 |
| 20260905235100 | 63 | 0 | 0.0 | 1.0 | 0.00 | 0.00 | 0.00 | 82 | 1012.5 |
| 20260905234608 | 63 | 0 | 0.0 | 2.0 | 0.00 | 0.00 | 0.00 | 83 | 1012.5 |
| 20260905234059 | 63 | 0 | 0.0 | 2.0 | 0.00 | 0.00 | 0.00 | 82 | 1012.5 |
| 20260905233601 | 64 | 0 | 0.0 | 2.0 | 0.00 | 0.00 | 0.00 | 81 | 1012.5 |
| 20260905233101 | 64 | 0 | 0.0 | 6.0 | 0.00 | 0.00 | 0.00 | 81 | 1012.5 |
| 20260905232603 | 64 | 0 | 1.0 | 6.0 | 0.00 | 0.00 | 0.00 | 81 | 1012.6 |
| 20260905232100 | 64 | 74 | 0.0 | 4.0 | 0.00 | 0.00 | 0.00 | 80 | 1012.6 |